Temperature
23 21 21 22 22 23 24 24 24 24 24 25 24 23 22 22 22 22 21 21 21 22 22 22 22 22 21 21 21 21 20 20 19 19 19 19 19 19 19 19 18 18 18 18
20 21 22 22 23 24 24 24 24 24 24 24 23 23 22 22 22 22 22 22 22 22 22 22 22 22 22 21 21 21 20 20 20 20 19 19 19 19 19 19 18 18 18 18
22 22 22 23 23 24 24 24 24 24 24 23 24 23 22 22 22 22 22 22 22 22 23 22 22 22 22 22 21 21 21 20 20 20 19 19 19 19 19 19 19 18 18 18
22 22 23 23 23 23 23 24 24 24 23 21 23 22 22 21 21 21 22 22 23 23 23 23 23 22 22 22 22 21 21 20 20 20 19 19 19 19 19 19 19 18 18 18
21 22 23 23 24 23 24 23 23 23 22 21 21 21 21 20 21 21 22 22 23 23 23 23 23 23 23 22 22 21 21 21 20 20 20 19 19 19 19 19 19 18 18 18
21 23 23 24 24 24 23 22 20 18 19 21 21 21 21 20 21 21 22 23 23 23 23 24 24 23 23 22 22 22 21 21 20 20 20 19 19 19 19 19 19 19 18 18
22 23 23 24 24 23 22 20 20 21 19 20 20 21 20 21 21 22 22 23 24 24 24 24 23 23 23 22 22 22 21 21 20 20 20 20 20 19 19 19 19 19 18 18
20 21 23 23 23 22 21 21 20 21 20 19 20 20 21 22 22 23 23 24 24 24 24 24 24 24 23 23 22 22 22 21 21 20 20 20 20 19 19 19 19 19 18 18
19 20 22 23 23 22 21 20 19 18 19 20 20 20 21 22 22 22 23 23 24 24 24 24 24 24 24 23 23 22 22 21 21 20 20 20 20 19 19 19 19 18 18 18
19 21 22 23 23 21 20 18 17 18 19 20 22 21 21 22 22 21 21 22 24 24 24 24 24 24 23 23 23 22 22 21 21 20 20 20 20 19 19 19 18 18 18 18
20 20 21 22 23 22 20 19 17 16 17 19 21 21 21 21 21 20 20 22 23 24 24 24 24 23 23 23 22 22 22 21 21 20 20 20 19 19 19 19 19 18 18 18
18 17 19 21 22 22 21 19 17 19 18 17 18 20 21 20 20 20 21 22 23 24 24 24 23 23 22 22 22 22 21 21 21 20 20 20 19 19 19 19 18 18 18 18
18 17 19 20 20 21 21 19 18 16 15 16 19 21 20 20 20 21 21 22 23 23 23 23 23 23 22 22 22 22 21 21 21 20 20 20 19 19 19 18 18 18 18 17
18 16 18 19 19 20 21 20 18 18 17 17 18 21 20 20 20 20 21 22 23 23 23 23 22 22 22 22 22 21 21 21 20 20 20 19 19 19 19 18 18 18 17 17
18 18 18 19 20 21 22 21 19 20 18 19 19 19 20 19 19 20 21 21 22 22 22 22 22 22 22 22 21 21 21 20 20 20 19 19 19 18 18 18 18 17 17 17
16 18 19 20 21 21 22 21 20 21 19 20 20 20 19 20 20 20 21 21 22 22 22 22 22 22 22 21 21 21 20 20 19 19 19 19 18 18 18 17 17 17 16 16
14 16 17 18 20 22 21 21 20 20 20 20 20 20 19 19 19 20 21 21 22 22 22 22 22 22 21 21 21 20 20 19 19 19 19 18 18 18 17 17 16 16 16 16
14 14 14 16 20 20 20 20 20 20 20 19 20 19 19 20 21 21 22 22 22 22 22 22 22 22 21 21 20 20 19 19 19 18 18 18 17 17 17 16 16 15 15 15
13 14 14 15 17 19 20 20 20 20 20 19 19 19 19 20 20 20 21 22 23 23 22 22 22 21 21 20 20 19 19 18 18 18 18 17 17 17 16 16 15 15 15 15
13 13 14 15 18 18 19 20 20 20 20 19 18 18 19 19 19 20 22 22 22 22 22 22 21 21 20 20 19 19 18 18 18 17 17 16 16 16 16 15 15 15 14 14
15 14 15 15 17 17 18 19 20 20 19 20 19 19 19 19 21 23 23 22 22 22 22 21 21 20 20 19 19 18 18 18 17 17 16 16 15 15 15 15 15 14 14 14
14 14 14 14 17 18 18 18 18 18 19 20 20 20 20 21 22 22 22 22 21 21 21 21 20 20 19 19 18 18 18 17 17 16 16 15 15 15 15 14 14 14 14 14
13 13 13 14 15 16 17 18 19 19 19 20 20 21 21 21 21 21 21 21 20 20 20 20 20 19 18 18 18 17 17 16 16 16 15 15 15 15 14 14 14 14 13 13
13 12 12 14 15 16 17 18 19 19 19 20 20 20 20 20 20 20 20 19 19 19 19 19 19 18 18 17 17 17 16 16 16 15 15 15 15 14 14 14 13 13 13 13
13 13 13 14 15 16 17 17 18 19 20 20 20 20 20 20 20 19 19 19 19 19 19 18 18 18 17 17 16 16 16 16 15 15 15 15 14 14 14 13 13 13 13 12
12 13 13 14 15 14 16 17 18 19 20 20 19 19 20 20 20 19 18 18 18 18 18 18 18 17 17 17 16 16 15 15 15 15 15 14 14 14 13 13 13 12 12 12
Wind_Speed
4 5 3 5 6 6 6 4 2 3 2 2 3 4 5 10 10 11 11 11 13 14 10 9 10 10 9 8 9 9 8 7 6 4 3 3 3 3 3 5 8 8 8 8
5 2 5 5 5 5 5 3 0 2 3 2 2 4 2 9 13 13 13 13 13 11 8 10 10 10 11 11 10 9 9 9 8 6 4 3 3 2 3 3 5 7 8 7
6 4 4 6 5 4 3 5 4 2 3 5 3 5 2 4 5 7 9 10 10 12 12 11 12 12 12 12 12 11 10 9 8 7 4 3 2 1 1 2 2 5 7 7
4 4 4 5 5 7 4 5 6 4 4 2 2 2 6 4 5 8 10 10 12 12 11 10 12 12 13 13 11 10 10 8 8 7 7 6 5 5 5 3 3 4 6 7
5 3 4 5 6 8 6 3 5 4 4 2 2 2 8 2 5 11 13 13 12 12 12 12 13 13 12 11 11 10 9 9 8 8 8 7 6 5 3 2 3 4 4 5
4 3 5 6 4 6 6 7 8 7 5 1 3 3 6 5 8 8 10 11 11 12 12 12 10 9 9 9 9 9 9 8 8 8 8 8 8 6 4 4 4 4 3 3
2 3 3 4 4 4 6 7 4 4 3 5 3 3 9 8 8 9 10 10 11 11 12 11 11 11 11 10 10 9 9 8 8 8 9 9 8 7 7 6 5 5 4 4
6 5 5 5 7 7 6 10 9 6 5 4 1 5 8 7 6 6 7 6 6 8 10 12 12 12 12 12 11 10 10 9 9 9 9 7 7 5 5 5 5 5 5 5
8 6 4 4 4 10 8 5 8 8 4 1 4 7 8 5 5 4 3 3 5 8 10 11 11 11 11 12 12 11 11 9 8 8 7 6 6 6 6 5 4 3 3 3
9 4 4 1 6 5 7 10 7 7 6 2 4 5 5 6 7 5 3 3 3 3 5 7 8 9 9 10 9 9 9 9 8 7 7 6 6 6 5 4 4 3 3 2
6 5 2 2 6 8 6 6 6 6 6 7 3 7 6 8 6 5 4 3 2 3 5 6 6 7 8 8 8 8 7 7 6 7 6 5 4 4 4 4 4 3 2 2
6 6 2 5 3 5 6 9 9 7 4 5 5 7 6 5 4 3 2 1 1 3 4 6 7 7 7 7 7 7 7 6 6 6 5 5 4 3 3 3 2 2 2 2
8 7 3 3 3 1 4 5 6 8 7 6 6 7 4 3 2 1 0 1 2 4 5 5 7 7 7 6 6 6 6 5 4 5 5 4 3 3 3 3 2 2 2 2
8 6 7 10 8 6 5 5 6 7 6 6 8 7 6 5 2 2 1 2 3 4 5 6 6 5 5 6 6 6 5 5 5 5 4 4 3 3 3 3 3 3 3 2
7 6 6 5 4 5 5 7 8 7 10 10 10 9 10 9 7 5 3 3 4 4 5 6 5 5 5 5 5 6 5 5 5 5 4 4 3 4 4 4 4 4 3 3
4 7 5 1 2 4 2 5 8 7 7 7 5 8 8 4 3 4 4 5 5 5 5 5 5 5 5 5 6 6 6 6 6 6 4 3 4 5 4 4 4 4 4 4
3 7 6 3 1 3 2 4 6 5 5 8 9 10 5 5 8 8 8 7 6 6 6 6 6 5 5 6 6 6 7 7 6 6 5 4 5 5 5 5 5 5 4 4
7 6 5 4 4 5 8 4 5 6 4 6 6 5 7 8 6 4 5 6 6 6 6 6 5 5 6 6 7 7 7 7 7 6 5 5 6 6 5 6 6 5 4 5
5 8 5 5 4 4 5 2 3 5 3 3 5 5 4 4 4 1 3 5 7 7 6 5 5 6 7 7 8 9 8 7 7 6 5 5 6 6 6 6 5 5 5 5
5 5 6 5 5 7 7 3 1 4 3 3 4 6 6 7 4 5 5 5 5 5 6 6 7 7 7 7 8 10 8 8 7 6 6 6 6 7 7 6 5 5 6 6
4 4 5 5 4 6 6 4 2 5 7 3 4 6 8 7 6 5 7 6 6 6 7 8 8 7 7 7 9 9 8 7 7 7 7 7 7 7 7 6 5 6 6 7
5 6 5 5 4 6 3 2 5 6 2 1 3 4 5 4 3 6 7 8 8 8 8 9 9 7 7 8 9 9 7 7 8 8 8 8 7 6 6 7 7 6 7 7
3 5 6 7 6 4 2 3 2 2 2 2 2 2 5 5 5 6 6 7 8 9 8 8 9 9 7 7 9 9 7 8 9 9 8 7 7 7 6 6 6 6 5 5
1 1 3 1 2 2 2 1 1 1 2 1 1 2 4 6 7 7 8 8 8 8 8 8 10 9 7 6 7 8 8 8 10 10 8 8 8 7 6 5 4 5 4 4
2 2 2 1 1 2 2 2 1 2 3 4 3 3 4 8 8 8 8 8 8 7 7 8 9 9 8 7 7 7 8 9 10 9 8 8 7 7 7 6 5 3 3 2
3 4 4 4 5 3 3 2 1 1 3 3 4 4 4 6 9 8 7 6 7 8 8 8 8 8 8 8 7 7 7 9 10 8 7 6 6 6 6 6 7 11 7 7
Wind_Direction
48 79 165 186 165 154 148 144 195 248 268 161 226 247 202 184 193 200 202 204 208 215 209 193 193 189 182 182 183 183 180 178 170 166 171 175 199 205 207 214 213 210 212 209
56 234 208 153 145 124 129 127 208 326 12 128 247 293 227 191 203 205 207 210 213 213 201 195 191 188 188 187 189 187 186 184 185 183 175 171 165 191 211 217 210 210 212 213
165 220 162 139 136 131 153 173 193 204 14 35 69 338 280 233 223 226 224 219 216 213 207 199 194 194 192 193 193 195 193 193 192 179 151 133 112 103 172 214 213 210 210 212
204 234 159 150 169 150 209 211 173 143 95 322 80 267 284 240 232 232 231 221 218 215 207 201 197 195 196 198 192 189 190 192 192 178 177 177 184 198 210 205 209 216 214 215
219 195 165 185 197 166 190 138 129 124 128 70 28 146 287 302 245 244 237 228 221 209 201 201 201 198 197 192 188 189 187 190 188 186 191 189 199 204 198 194 203 217 219 219
225 229 196 199 176 157 132 77 59 51 76 89 237 167 275 241 231 249 239 228 219 206 201 202 198 186 189 187 187 186 183 190 187 187 194 198 204 202 197 205 209 215 220 223
256 258 233 171 117 84 106 96 51 22 23 247 268 188 249 255 244 240 241 230 218 203 197 196 190 184 185 186 188 188 187 194 190 190 199 203 205 202 207 212 212 210 216 223
169 246 225 188 168 159 159 139 153 177 204 266 316 231 256 270 277 261 245 233 209 195 195 196 194 188 187 187 188 187 191 197 193 198 207 206 202 203 213 212 210 212 220 226
169 231 273 216 167 135 131 150 152 129 147 130 280 287 302 305 323 312 277 213 199 196 194 194 190 182 183 185 190 188 191 195 197 200 201 203 202 206 212 209 207 215 222 228
153 195 269 220 93 45 138 141 108 120 140 204 291 284 260 280 288 296 289 243 216 186 186 186 182 177 178 184 185 183 189 195 198 198 200 205 202 207 206 198 203 210 216 215
137 149 301 106 164 162 112 102 108 113 143 150 210 268 234 237 252 262 269 261 208 175 172 168 168 168 168 170 174 178 183 190 194 195 195 196 194 195 185 186 197 197 192 186
140 125 203 250 259 176 149 157 146 146 176 160 164 260 278 255 259 241 262 301 122 143 143 140 147 149 156 162 164 167 173 184 191 183 175 179 175 169 170 179 183 172 168 159
143 124 106 359 359 87 124 139 137 123 118 147 164 256 309 343 351 326 162 88 99 114 124 130 138 146 155 159 159 161 161 174 171 158 160 161 162 163 165 166 154 138 135 125
131 123 162 186 205 182 161 152 146 127 143 179 208 235 281 276 261 259 233 152 126 128 135 138 141 146 150 149 149 151 149 153 143 138 145 155 166 163 155 143 130 119 119 119
127 152 181 207 210 173 173 173 171 170 173 176 215 219 240 236 218 209 200 168 138 133 137 148 151 148 141 136 135 136 133 130 132 131 134 145 145 135 129 126 124 113 105 101
111 152 159 214 210 179 171 183 182 185 176 191 196 240 244 226 175 181 188 181 168 164 161 158 149 143 140 144 143 135 131 131 130 134 139 135 126 116 115 118 115 107 98 88
123 132 137 207 254 114 237 215 189 188 188 175 200 225 202 178 188 193 193 190 183 178 172 166 160 155 150 146 138 138 135 129 130 134 130 115 111 107 105 104 100 101 101 97
137 126 129 137 120 198 241 242 189 178 205 207 207 204 188 189 186 190 185 187 190 179 171 169 157 145 138 130 125 126 125 127 130 128 123 117 115 110 102 99 98 95 97 96
140 132 117 125 158 245 283 227 160 157 248 219 190 187 169 131 91 345 209 191 190 178 165 159 149 140 133 130 131 127 124 124 121 121 119 114 114 110 103 102 101 99 95 89
72 99 115 125 148 210 233 254 200 124 261 253 187 183 163 133 151 231 199 167 158 143 140 136 127 122 125 128 129 127 127 125 126 127 123 116 114 114 112 109 103 95 94 90
85 78 120 140 174 244 249 276 116 155 226 247 190 186 169 179 198 188 151 144 136 131 134 131 128 128 129 130 126 125 126 127 128 123 115 110 108 109 109 104 99 99 99 94
153 139 152 138 156 237 263 135 167 211 236 214 187 178 175 179 140 133 139 137 135 134 134 134 131 126 125 129 129 127 127 124 121 117 112 108 105 107 108 105 99 97 101 99
172 180 175 177 200 240 263 207 218 178 181 209 187 185 166 150 144 137 137 139 142 140 136 132 130 127 127 132 135 133 130 125 120 114 111 108 102 96 101 107 109 103 100 104
289 130 127 146 283 302 313 298 320 197 192 223 185 159 150 149 146 141 142 142 141 137 136 133 132 132 134 130 125 127 130 126 122 119 116 111 107 101 92 89 97 109 112 115
220 146 118 127 273 352 5 9 352 15 74 79 85 114 139 139 138 143 144 145 145 141 140 139 138 138 140 132 126 129 132 130 125 123 119 114 110 110 99 83 66 84 82 128
212 176 160 199 210 184 243 276 313 87 81 94 98 90 97 130 134 136 140 145 143 142 140 136 134 137 136 134 133 134 136 137 134 131 128 125 122 116 113 105 81 56 64 73
Height
1502 1509 1516 1514 1513 1516 1519 1524 1527 1523 1516 1518 1521 1522 1521 1522 1524 1526 1528 1529 1530 1531 1535 1538 1541 1544 1547 1550 1552 1554 1556 1558 1560 1562 1564 1565 1567 1569 1570 1571 1573 1574 1575 1576
1510 1513 1508 1509 1511 1514 1518 1524 1526 1522 1517 1519 1523 1523 1521 1521 1521 1522 1524 1526 1527 1530 1533 1536 1538 1541 1544 1547 1550 1552 1554 1557 1558 1560 1562 1564 1566 1567 1569 1570 1571 1572 1574 1575
1510 1509 1505 1508 1513 1517 1520 1523 1524 1524 1521 1521 1524 1529 1524 1521 1521 1523 1523 1524 1526 1527 1529 1532 1535 1538 1541 1544 1547 1550 1553 1556 1557 1559 1561 1563 1564 1565 1567 1568 1570 1571 1572 1573
1506 1504 1505 1508 1512 1515 1523 1515 1517 1522 1530 1538 1532 1547 1529 1523 1521 1520 1519 1521 1521 1524 1527 1529 1532 1534 1537 1541 1544 1548 1551 1553 1555 1557 1559 1560 1561 1562 1564 1566 1568 1569 1570 1570
1506 1503 1504 1508 1508 1510 1514 1512 1517 1522 1531 1540 1538 1546 1537 1524 1523 1517 1514 1515 1516 1519 1522 1525 1527 1531 1535 1538 1542 1545 1548 1550 1553 1555 1556 1558 1559 1561 1562 1564 1565 1566 1567 1568
1502 1500 1500 1502 1502 1505 1509 1517 1525 1534 1541 1553 1542 1546 1542 1529 1519 1512 1509 1510 1511 1514 1518 1521 1525 1529 1532 1536 1540 1543 1545 1548 1551 1553 1554 1556 1557 1558 1560 1561 1562 1563 1564 1565
1504 1500 1497 1498 1504 1507 1511 1530 1550 1553 1562 1558 1542 1543 1538 1515 1509 1507 1505 1505 1506 1510 1514 1517 1521 1525 1529 1533 1537 1540 1543 1545 1548 1550 1551 1553 1554 1556 1557 1558 1559 1560 1561 1562
1514 1515 1499 1496 1500 1509 1513 1523 1548 1560 1563 1557 1544 1543 1526 1508 1504 1503 1502 1502 1504 1507 1510 1514 1517 1522 1526 1529 1533 1537 1539 1542 1545 1547 1549 1550 1552 1553 1554 1555 1556 1557 1558 1558
1513 1512 1495 1493 1494 1501 1515 1523 1525 1545 1551 1554 1549 1536 1519 1506 1504 1502 1501 1501 1502 1504 1507 1511 1515 1519 1523 1526 1530 1533 1537 1539 1542 1544 1546 1548 1549 1550 1551 1552 1553 1554 1555 1555
1500 1508 1497 1493 1495 1500 1504 1516 1532 1545 1559 1559 1546 1540 1532 1513 1508 1504 1502 1501 1501 1503 1506 1509 1513 1516 1520 1524 1528 1531 1534 1537 1540 1542 1544 1545 1546 1547 1548 1549 1550 1551 1552 1553
1494 1505 1503 1498 1499 1506 1511 1519 1528 1542 1544 1558 1556 1543 1514 1509 1505 1503 1501 1500 1501 1503 1505 1507 1511 1515 1519 1522 1526 1529 1532 1535 1537 1539 1541 1543 1544 1545 1546 1546 1547 1548 1549 1550
1493 1506 1513 1504 1496 1494 1499 1509 1521 1535 1545 1548 1550 1540 1505 1504 1502 1501 1501 1501 1501 1503 1505 1507 1510 1514 1518 1521 1524 1527 1529 1532 1535 1537 1539 1540 1541 1542 1543 1544 1545 1545 1546 1547
1491 1505 1518 1515 1510 1501 1502 1507 1512 1523 1539 1549 1548 1533 1504 1503 1502 1501 1501 1501 1502 1504 1506 1508 1511 1514 1517 1520 1522 1525 1527 1530 1533 1535 1536 1538 1539 1540 1540 1541 1542 1543 1544 1544
1482 1501 1510 1517 1511 1503 1503 1506 1510 1518 1534 1541 1534 1522 1509 1505 1503 1502 1502 1502 1503 1504 1506 1508 1511 1513 1516 1519 1521 1524 1526 1529 1531 1533 1534 1535 1536 1537 1538 1539 1539 1540 1541 1542
1481 1496 1498 1497 1494 1495 1496 1500 1505 1508 1515 1524 1520 1517 1507 1502 1501 1501 1502 1502 1503 1504 1506 1508 1511 1513 1516 1518 1521 1523 1525 1528 1530 1531 1532 1533 1534 1535 1536 1536 1537 1538 1539 1540
1483 1493 1495 1496 1492 1493 1496 1497 1500 1501 1506 1508 1508 1509 1498 1498 1500 1501 1501 1502 1503 1504 1506 1508 1511 1513 1516 1518 1520 1522 1524 1526 1529 1530 1531 1531 1532 1533 1534 1535 1536 1536 1537 1538
1487 1493 1501 1505 1496 1494 1504 1496 1497 1498 1497 1500 1505 1500 1495 1497 1497 1498 1499 1501 1503 1504 1506 1509 1511 1513 1515 1517 1519 1521 1523 1526 1528 1529 1530 1530 1531 1532 1533 1534 1535 1536 1536 1537
1486 1494 1503 1507 1503 1514 1501 1488 1488 1491 1492 1492 1491 1491 1492 1492 1494 1496 1498 1500 1502 1504 1506 1509 1511 1513 1515 1517 1519 1521 1523 1525 1527 1528 1529 1529 1530 1531 1533 1533 1534 1535 1536 1537
1479 1490 1504 1512 1513 1506 1493 1486 1487 1490 1493 1489 1489 1489 1491 1493 1495 1497 1498 1500 1501 1503 1506 1508 1511 1513 1515 1517 1519 1521 1523 1525 1526 1528 1528 1529 1530 1531 1533 1534 1535 1536 1536 1537
1482 1486 1500 1509 1510 1513 1495 1484 1483 1487 1494 1486 1487 1488 1489 1492 1498 1496 1495 1497 1500 1503 1505 1508 1511 1513 1515 1518 1519 1521 1522 1524 1526 1527 1528 1530 1531 1532 1533 1534 1536 1536 1537 1538
1490 1494 1500 1505 1505 1500 1486 1482 1483 1498 1495 1484 1484 1485 1487 1488 1489 1491 1493 1496 1499 1502 1505 1508 1510 1513 1515 1517 1519 1521 1522 1524 1526 1527 1529 1530 1532 1533 1534 1535 1537 1538 1538 1539
1490 1495 1500 1504 1504 1501 1481 1481 1486 1486 1482 1482 1483 1484 1485 1486 1488 1490 1492 1495 1498 1501 1505 1507 1510 1513 1515 1518 1519 1521 1523 1525 1526 1528 1529 1531 1532 1534 1535 1536 1538 1539 1540 1541
1487 1487 1489 1491 1492 1483 1480 1480 1480 1480 1481 1481 1481 1483 1484 1485 1488 1490 1492 1495 1498 1501 1504 1507 1510 1512 1515 1518 1520 1521 1524 1525 1527 1528 1530 1532 1533 1535 1536 1538 1539 1540 1541 1542
1483 1482 1484 1485 1482 1480 1479 1479 1479 1479 1480 1480 1481 1482 1483 1484 1487 1490 1493 1496 1499 1502 1504 1507 1510 1513 1515 1518 1520 1522 1524 1526 1528 1529 1531 1532 1534 1536 1537 1539 1540 1541 1542 1544
1481 1481 1483 1484 1481 1480 1479 1479 1479 1479 1479 1480 1480 1482 1483 1485 1488 1490 1493 1495 1498 1501 1504 1507 1510 1513 1515 1518 1521 1523 1525 1527 1529 1530 1531 1533 1535 1536 1538 1540 1541 1542 1544 1545
1479 1480 1481 1482 1479 1480 1480 1480 1480 1480 1480 1480 1481 1482 1484 1486 1488 1491 1493 1496 1499 1502 1504 1507 1510 1513 1515 1518 1521 1523 1525 1528 1529 1530 1532 1534 1535 1537 1539 1540 1542 1543 1545 1546